| time (UTC) | temp F | wind direction | speed MPH | gust MPH | rain 1hr in | rain 24hr in | rain mn in | humidity % | barometer mb |
| 20260507051559 | 53 | 0 | 0.0 | 0.0 | 0.00 | 0.40 | 0.06 | 92 | 1012.5 |
| 20260507050050 | 53 | 0 | 0.0 | 0.0 | 0.00 | 0.40 | 0.06 | 92 | 1012.3 |
| 20260507044543 | 53 | 0 | 0.0 | 0.0 | 0.00 | 0.40 | 0.06 | 91 | 1012.3 |
| 20260507043045 | 53 | 0 | 0.0 | 1.0 | 0.00 | 0.40 | 0.06 | 92 | 1012.1 |
| 20260507041544 | 53 | 326 | 0.0 | 3.0 | 0.00 | 0.40 | 0.06 | 91 | 1012.0 |
| 20260507040049 | 53 | 300 | 1.0 | 3.0 | 0.00 | 0.40 | 0.06 | 90 | 1011.9 |
| 20260507034549 | 53 | 263 | 3.0 | 6.0 | 0.00 | 0.40 | 0.06 | 90 | 1012.0 |
| 20260507033051 | 54 | 280 | 3.0 | 5.0 | 0.00 | 0.40 | 0.06 | 90 | 1011.9 |
| 20260507031549 | 54 | 0 | 2.0 | 6.0 | 0.00 | 0.40 | 0.06 | 90 | 1011.8 |
| 20260507030050 | 55 | 0 | 0.0 | 2.0 | 0.00 | 0.40 | 0.06 | 91 | 1011.7 |
| 20260507024547 | 55 | 180 | 0.0 | 5.0 | 0.00 | 0.40 | 0.06 | 91 | 1011.7 |
| 20260507023050 | 55 | 211 | 3.0 | 7.0 | 0.00 | 0.40 | 0.06 | 90 | 1011.8 |
| 20260507021544 | 55 | 182 | 5.0 | 7.0 | 0.00 | 0.40 | 0.06 | 91 | 1011.6 |
| 20260507020100 | 55 | 0 | 0.0 | 2.0 | 0.00 | 0.40 | 0.06 | 91 | 1011.6 |
| 20260507014557 | 55 | 168 | 2.0 | 5.0 | 0.00 | 0.40 | 0.06 | 91 | 1011.4 |
| 20260507013043 | 55 | 243 | 3.0 | 9.0 | 0.00 | 0.40 | 0.06 | 91 | 1011.2 |
| 20260507011549 | 55 | 227 | 7.0 | 12.0 | 0.00 | 0.40 | 0.06 | 92 | 1011.1 |
| 20260507010058 | 55 | 275 | 3.0 | 7.0 | 0.00 | 0.40 | 0.06 | 92 | 1011.0 |
| 20260507004543 | 55 | 286 | 3.0 | 7.0 | 0.00 | 0.41 | 0.06 | 91 | 1011.0 |
| 20260507003046 | 56 | 155 | 5.0 | 9.0 | 0.04 | 0.41 | 0.06 | 90 | 1011.0 |
| 20260507001547 | 55 | 139 | 3.0 | 6.0 | 0.04 | 0.41 | 0.06 | 92 | 1011.2 |
| 20260507000045 | 55 | 162 | 3.0 | 7.0 | 0.04 | 0.41 | 0.06 | 91 | 1011.1 |
| 20260506234547 | 55 | 150 | 1.0 | 3.0 | 0.03 | 0.40 | 0.05 | 91 | 1011.0 |
| 20260506233044 | 55 | 116 | 1.0 | 5.0 | 0.00 | 0.37 | 0.01 | 91 | 1010.9 |
| 20260506231604 | 55 | 5 | 2.0 | 5.0 | 0.00 | 0.37 | 0.01 | 90 | 1010.9 |
| 20260506230106 | 56 | 55 | 1.0 | 3.0 | 0.00 | 0.37 | 0.01 | 89 | 1010.8 |
| 20260506224550 | 56 | 344 | 2.0 | 4.0 | 0.02 | 0.37 | 0.01 | 88 | 1010.6 |
| 20260506223049 | 57 | 0 | 0.0 | 0.0 | 0.02 | 0.37 | 0.01 | 87 | 1010.6 |
| 20260506221608 | 57 | 0 | 0.0 | 3.0 | 0.02 | 0.37 | 0.01 | 84 | 1010.4 |
| 20260506220115 | 58 | 137 | 2.0 | 5.0 | 0.00 | 0.35 | 0.00 | 85 | 1010.4 |
| 20260506214550 | 58 | 245 | 3.0 | 6.0 | 0.00 | 0.34 | 0.34 | 83 | 1010.0 |
| 20260506213104 | 58 | 271 | 1.0 | 6.0 | 0.00 | 0.34 | 0.34 | 82 | 1010.0 |
| 20260506211547 | 59 | 94 | 2.0 | 6.0 | 0.00 | 0.34 | 0.34 | 80 | 1009.9 |
| 20260506210057 | 58 | 142 | 3.0 | 8.0 | 0.00 | 0.34 | 0.34 | 81 | 1010.1 |
| 20260506204556 | 58 | 130 | 4.0 | 7.0 | 0.00 | 0.34 | 0.34 | 82 | 1009.9 |
| 20260506203047 | 59 | 258 | 0.0 | 5.0 | 0.00 | 0.34 | 0.34 | 81 | 1009.5 |
| 20260506201550 | 59 | 0 | 1.0 | 8.0 | 0.00 | 0.34 | 0.34 | 80 | 1009.1 |
| 20260506200048 | 59 | 287 | 6.0 | 11.0 | 0.00 | 0.34 | 0.34 | 79 | 1008.7 |
| 20260506194550 | 59 | 123 | 4.0 | 9.0 | 0.00 | 0.34 | 0.34 | 78 | 1008.2 |
| 20260506193045 | 59 | 125 | 4.0 | 9.0 | 0.00 | 0.34 | 0.34 | 77 | 1008.1 |
| 20260506191551 | 60 | 0 | 0.0 | 11.0 | 0.00 | 0.34 | 0.34 | 76 | 1007.9 |
| 20260506190046 | 61 | 156 | 3.0 | 17.0 | 0.00 | 0.34 | 0.34 | 76 | 1007.6 |
| 20260506184605 | 61 | 145 | 2.0 | 6.0 | 0.00 | 0.34 | 0.34 | 78 | 1007.7 |
| 20260506183048 | 61 | 59 | 3.0 | 7.0 | 0.00 | 0.34 | 0.34 | 79 | 1007.3 |
| 20260506181551 | 62 | 9 | 4.0 | 7.0 | 0.00 | 0.34 | 0.34 | 78 | 1006.9 |
| 20260506180058 | 61 | 92 | 5.0 | 12.0 | 0.06 | 0.34 | 0.34 | 77 | 1006.6 |
| 20260506174547 | 61 | 355 | 6.0 | 20.0 | 0.15 | 0.34 | 0.34 | 80 | 1006.5 |
| 20260506173050 | 62 | 139 | 10.0 | 18.0 | 0.15 | 0.34 | 0.34 | 77 | 1005.8 |
| 20260506171557 | 62 | 126 | 9.0 | 22.0 | 0.15 | 0.34 | 0.34 | 78 | 1005.8 |
| 20260506170053 | 62 | 130 | 10.0 | 23.0 | 0.08 | 0.27 | 0.27 | 78 | 1005.6 |
| 20260506164548 | 65 | 128 | 12.0 | 19.0 | 0.01 | 0.18 | 0.18 | 71 | 1005.3 |
| 20260506163049 | 66 | 107 | 8.0 | 20.0 | 0.03 | 0.18 | 0.18 | 70 | 1005.3 |
| 20260506161546 | 65 | 121 | 12.0 | 20.0 | 0.07 | 0.18 | 0.18 | 70 | 1005.4 |
| 20260506160108 | 65 | 103 | 13.0 | 21.0 | 0.16 | 0.18 | 0.18 | 72 | 1005.3 |
| 20260506154551 | 65 | 125 | 12.0 | 17.0 | 0.14 | 0.17 | 0.17 | 73 | 1005.2 |
| 20260506153046 | 65 | 136 | 10.0 | 19.0 | 0.13 | 0.15 | 0.15 | 72 | 1005.5 |
| 20260506151545 | 64 | 132 | 7.0 | 11.0 | 0.08 | 0.11 | 0.11 | 71 | 1005.8 |
| 20260506150054 | 66 | 128 | 8.0 | 14.0 | 0.00 | 0.02 | 0.02 | 65 | 1005.6 |
| 20260506144559 | 67 | 150 | 7.0 | 15.0 | 0.00 | 0.02 | 0.02 | 62 | 1005.3 |
| 20260506143050 | 68 | 126 | 9.0 | 19.0 | 0.00 | 0.02 | 0.02 | 61 | 1005.4 |
| 20260506141547 | 69 | 101 | 10.0 | 17.0 | 0.00 | 0.02 | 0.02 | 61 | 1005.6 |
| 20260506140050 | 69 | 103 | 9.0 | 15.0 | 0.00 | 0.02 | 0.02 | 62 | 1005.6 |
| 20260506134549 | 68 | 171 | 8.0 | 15.0 | 0.00 | 0.02 | 0.02 | 60 | 1005.8 |
| 20260506133050 | 67 | 115 | 8.0 | 19.0 | 0.00 | 0.02 | 0.02 | 64 | 1005.9 |
| 20260506131557 | 68 | 90 | 5.0 | 11.0 | 0.00 | 0.02 | 0.02 | 64 | 1005.9 |
| 20260506130049 | 69 | 34 | 4.0 | 13.0 | 0.00 | 0.02 | 0.02 | 63 | 1006.0 |
| 20260506124547 | 68 | 71 | 8.0 | 14.0 | 0.00 | 0.02 | 0.02 | 63 | 1006.1 |
| 20260506123052 | 67 | 338 | 9.0 | 13.0 | 0.00 | 0.02 | 0.02 | 71 | 1006.1 |
| 20260506121547 | 67 | 17 | 8.0 | 13.0 | 0.00 | 0.02 | 0.02 | 70 | 1006.1 |
| 20260506120052 | 67 | 10 | 7.0 | 13.0 | 0.00 | 0.02 | 0.02 | 71 | 1006.2 |
| 20260506114551 | 66 | 11 | 4.0 | 11.0 | 0.00 | 0.02 | 0.02 | 72 | 1006.4 |
| 20260506113048 | 65 | 5 | 3.0 | 11.0 | 0.00 | 0.02 | 0.02 | 75 | 1006.6 |
| 20260506111543 | 64 | 332 | 3.0 | 10.0 | 0.00 | 0.02 | 0.02 | 74 | 1006.6 |
| 20260506110048 | 64 | 316 | 1.0 | 8.0 | 0.00 | 0.02 | 0.02 | 76 | 1006.8 |
| 20260506104551 | 64 | 347 | 5.0 | 9.0 | 0.00 | 0.03 | 0.02 | 77 | 1007.0 |
| 20260506103052 | 64 | 41 | 3.0 | 7.0 | 0.00 | 0.03 | 0.02 | 77 | 1007.1 |
| 20260506101550 | 62 | 28 | 4.0 | 8.0 | 0.00 | 0.03 | 0.02 | 80 | 1007.1 |
| 20260506100100 | 63 | 10 | 2.0 | 6.0 | 0.00 | 0.03 | 0.02 | 77 | 1007.4 |
| 20260506094549 | 62 | 0 | 1.0 | 6.0 | 0.00 | 0.03 | 0.02 | 78 | 1007.4 |
| 20260506093045 | 60 | 9 | 2.0 | 8.0 | 0.00 | 0.03 | 0.02 | 82 | 1007.6 |
| 20260506091552 | 59 | 312 | 2.0 | 10.0 | 0.00 | 0.03 | 0.02 | 83 | 1007.7 |
| 20260506090044 | 60 | 311 | 3.0 | 5.0 | 0.00 | 0.03 | 0.02 | 80 | 1007.6 |
| 20260506084543 | 60 | 90 | 2.0 | 4.0 | 0.00 | 0.03 | 0.02 | 82 | 1007.6 |
| 20260506083045 | 58 | 0 | 0.0 | 4.0 | 0.00 | 0.03 | 0.02 | 87 | 1007.8 |
| 20260506081545 | 58 | 0 | 0.0 | 0.0 | 0.00 | 0.03 | 0.02 | 88 | 1007.9 |
| 20260506073050 | 56 | 0 | 0.0 | 2.0 | 0.00 | 0.03 | 0.02 | 93 | 1008.0 |
| 20260506071558 | 55 | 355 | 0.0 | 2.0 | 0.00 | 0.03 | 0.02 | 94 | 1007.8 |
| 20260506061549 | 54 | 327 | 0.0 | 3.0 | 0.00 | 0.03 | 0.02 | 94 | 1008.0 |